Location: Dammartin
(48.9032°N, 1.6195°E)
Time: 21:01:43
(UTC+00:00)

YUBILEINY - Pass Details

Date: 12 December 2023
Orbit: 1479 x 1508 km, 82.5° (Epoch: 04 March)

Event Time Altitude Azimuth Distance (km) Brightness Sun altitude
Rises 19:31:58 0° 349° (N) 4,626 ? -34.2°
Reaches altitude 10° 19:34:52 10° 349° (N) 3,639 ? -34.7°
Maximum altitude 19:43:37 85° 263° (W) 1,492 ? -36.1°
Enters shadow 19:44:11 80° 201° (SSW) 1,507 ? -36.2°
